Location: ???? ??????? ????
(31.2176°N, 31.6797°E)
Time: 18:41:02
(UTC+00:00)

Cosmos 1408 - Pass Details

Date: 29 October 2020
Orbit: 470 x 492 km, 82.6° (Epoch: 30 November)

Event Time Altitude Azimuth Distance (km) Brightness Sun altitude
Rises 16:42:10 0° 350° (N) 2,555 6.3 -20.9°
Reaches altitude 10° 16:44:16 10° 347° (NNW) 1,675 5.4 -21.3°
Maximum altitude 16:47:54 65° 266° (W) 541 2.9 -22.1°
Drops below altitude 10° 16:51:32 10° 184° (S) 1,674 5.3 -22.9°
Sets 16:53:39 0° 181° (S) 2,554 6.3 -23.3°
